Погода в Колояре

Россия / Саратовская область     52°33′51″N   46°56′42″E
темп.,
°C
ветер,
м/с
пор.,
м/с
влажн.,
%
обл.,
%
осадки,
мм/ч
давл.,
гПа
погр.,
м
15 апреля, чт
чт1501:00+10в22780 0.0 102114
04:00+9всв228098 0.0 102011
07:00+9всв227482 0.0 102018
10:00+15вюв45552 0.0 1019336
13:00+19юв45397 0.0 1018806
16:00+21вюв563382 0.0 10171430
19:00+17вюв3348100 0.0 101635
22:00+14в2255100 0.0 101710
16 апреля, пт
пт1601:00+12всв2259100 0.0 101711
04:00+11всв226078 0.0 101712
07:00+10св3361100 0.0 101847
10:00+15всв4651100 0.0 1018305
13:00+18в4540100 0.0 1018781
16:00+20в4434100 0.0 10181436
19:00+16св2247100 0.0 101820
22:00+13св4961100 0.0 1019145
17 апреля, сб
сб1701:00+10св497910 0.0 1020145
04:00+9св498620 0.0 1021148
07:00+8св510885 0.0 1021221
10:00+14всв796716 0.0 1021539
13:00+17в78494 0.0 10211393
16:00+18в664191 0.0 10202456
19:00+15в5105296 0.0 1019368
22:00+12всв71466100 0.0 1019405
18 апреля, вс
вс1801:00+10св2392100 3.1 1020178
04:00+9всв1290100 9.6 1020196
07:00+7всв368559 2.9 1020301
10:00+9св227892 2.9 1020401
13:00+12св327279 0.0 1019834
16:00+11св447358 0.1 1020662
19:00+8св568234 0.0 1020388
22:00+7св498871 0.0 1020311
19 апреля, пн
пн1901:00+7св41080100 0.0 1020304
04:00+7всв71372100 0.0 1020520
07:00+5всв71378100 0.0 1021573
10:00+7всв81159100 0.0 1022722
13:00+9всв81056100 0.0 10221359
16:00+8св81060100 0.0 10221523
19:00+7всв81263100 0.0 10241124
22:00+6всв61163100 0.0 1025815